Location: Pedholt
(56.0260°N, 10.2097°E)
Time: 00:17:56
(UTC+00:00)

A-11 Canister half - Pass Details

Date: 31 July 2021
Orbit: 1515 x 1685 km, 47.2° (Epoch: 19 September)

Event Time Altitude Azimuth Distance (km) Brightness Sun altitude
Rises 19:16:52 0° 257° (WSW) 4,850 12.4 0.5°
Reaches altitude 10° 19:20:03 10° 253° (WSW) 3,884 11.8 0.1°
Maximum altitude 19:29:34 53° 181° (S) 1,998 9.5 -1.0°
Drops below altitude 10° 19:39:16 10° 109° (ESE) 3,951 10.6 -2.0°
Sets 19:42:32 0° 105° (ESE) 4,938 11.1 -2.4°
